[[{"header":{"parameterUnit":"m.s-1","parameterCategory":1,"la1":30.2991,"la2":30.254,"lo1":-89.0895,"lo2":-89.0444,"dx":0.0017,"dy":0.0017,"nx":28,"ny":28,"refTime":"2022-12-14T15:00:00:Z","depth":0,"parameterNumber":2,"parameterNumberName":"U-component_of_WINDS"},"data":[0,0,0,0,0,0,0,0,0,0,0,0,0,0,0,0,0,0,0,0,0,0,0,0,0,0,0,0,0,0,0,0,0,0,0,0,0,0,0,0,0,0,0,0,0,0,0,0,0,0,0,0,0,0,0,0,0,0,-2.332,-2.3322,0,-2.3555,-2.3557,-2.356,-2.3662,-2.3662,-2.3662,-2.3661,-2.3909,-2.3916,-2.3923,0,0,0,0,0,0,0,0,0,0,0,0,0,-2.2966,-2.2972,-2.3319,-2.3322,-2.3325,-2.3554,-2.3558,-2.3561,-2.3662,-2.3662,-2.3662,-2.3661,-2.3907,-2.3915,-2.3923,0,0,0,0,0,0,0,0,0,0,0,0,0,-2.3152,-2.2974,-2.3319,-2.3403,-2.3413,-2.3554,-2.3558,-2.3562,-2.3663,-2.3662,-2.3661,-2.3661,-2.3904,-2.3914,-2.3924,-2.4,0,0,-2.3956,-2.3961,0,0,0,0,0,0,0,0,-2.3141,-2.3165,-2.3388,-2.3398,-2.3409,-2.3578,-2.3524,-2.3709,-2.3663,-2.3568,-2.3661,-2.3661,-2.38,-2.3819,-2.3864,-2.4012,-2.4022,-2.3957,-2.3963,-2.3968,-2.3971,0,0,0,0,0,0,0,-2.3128,-2.3156,-2.3413,-2.3391,-2.3404,-2.3432,-2.3458,-2.3559,-2.3685,-2.3576,-2.3584,-2.361,-2.3806,-2.3854,-2.3871,-2.4026,-2.3957,-2.3966,-2.3972,-2.3977,-2.4249,-2.425,0,0,0,0,0,0,-2.3101,-2.3144,-2.3405,-2.342,-2.3271,-2.3439,-2.3468,-2.3525,-2.3684,-2.3707,-2.3611,-2.3614,-2.3837,-2.3859,-2.388,-2.398,-2.3968,-2.3978,-2.3984,-2.4248,-2.4249,-2.425,0,0,0,0,0,0,-2.3093,-2.3123,-2.3396,-2.3284,-2.3321,-2.3446,-2.3509,-2.353,-2.3578,-2.371,-2.3733,-2.3637,-2.3837,-2.3865,-2.3969,-2.399,-2.3982,-2.3992,-2.4247,-2.4248,-2.425,-2.4179,0,0,0,0,0,0,-2.3082,-2.3119,-2.3148,-2.3284,-2.3327,-2.3479,-2.351,-2.3535,-2.3595,-2.3602,-2.374,-2.3763,-2.3839,-2.3953,-2.398,-2.4004,-2.4,-2.4246,-2.4248,-2.4249,-2.418,-2.4178,-2.4176,0,0,0,0,0,-2.3069,-2.312,-2.3148,-2.3179,-2.3364,-2.348,-2.3504,-2.3589,-2.3596,-2.3627,-2.3712,-2.3758,-2.3983,-2.3963,-2.3994,-2.4022,-2.4245,-2.4247,-2.4249,-2.4181,-2.4179,-2.4176,0,0,0,0,0,0,-2.2985,-2.3139,-2.3173,-2.3269,-2.336,-2.3496,-2.3538,-2.3583,-2.3676,-2.3679,-2.3782,-2.3813,-2.3908,-2.3976,-2.395,-2.4104,-2.4118,-2.4127,-2.4056,-2.4055,-2.4053,-2.4035,-2.4009,0,0,0,0,0,-2.2977,-2.3056,-2.3187,-2.3259,-2.3303,-2.3412,-2.3466,-2.3523,-2.3623,-2.3662,-2.3755,-2.3851,-2.3945,-2.4004,-2.4096,-2.4191,-2.4223,-2.4226,-2.4223,-2.4221,-2.4227,-2.4284,-2.4286,-2.4258,-2.4258,-2.4258,0,0,-2.2963,-2.3057,-2.31,-2.3245,-2.3322,-2.3403,-2.3444,-2.3528,-2.359,-2.3676,-2.3779,-2.385,-2.3966,-2.4065,-2.4114,-2.4125,-2.4242,-2.4224,-2.4221,-2.4229,-2.4286,-2.4289,-2.4291,-2.4259,-2.4259,-2.4259,0,0,-2.2978,-2.3056,-2.3125,-2.3201,-2.3317,-2.3389,-2.3406,-2.3536,-2.3586,-2.369,-2.3756,-2.3833,-2.399,-2.407,-2.4131,-2.4177,-2.4223,-2.4204,-2.4194,-2.4247,-2.425,-2.4252,-2.4269,-2.4274,-2.421,-2.421,-2.421,0,-2.2946,-2.3068,-2.3155,-2.3235,-2.3298,-2.3377,-2.3449,-2.352,-2.3661,-2.3703,-2.3712,-2.3912,-2.3995,-2.4115,-2.4126,-2.4172,-2.4196,-2.4189,-2.4242,-2.4245,-2.4249,-2.4267,-2.4272,-2.4207,-2.4207,-2.4207,-2.4208,0,-2.3024,-2.3108,-2.315,-2.3281,-2.3349,-2.3424,-2.3525,-2.3583,-2.3634,-2.3706,-2.3813,-2.3916,-2.4031,-2.4064,-2.4116,-2.4191,-2.4194,-2.4221,-2.4238,-2.4247,-2.4265,-2.4273,-2.4202,-2.4203,-2.4204,-2.4205,0,0,-2.2992,-2.317,-2.3184,-2.3245,-2.3379,-2.3447,-2.3528,-2.3638,-2.3686,-2.3781,-2.3852,-2.3984,-2.401,-2.4079,-2.4141,-2.4188,-2.4218,-2.421,-2.4214,-2.4208,-2.4309,-2.4288,-2.4294,-2.425,-2.4252,-2.4253,-2.43,0,-2.3026,-2.317,-2.325,-2.3362,-2.3442,-2.3518,-2.3589,-2.368,-2.3749,-2.3829,-2.3908,-2.3999,-2.4026,-2.4068,-2.4118,-2.4203,-2.424,-2.4202,-2.4319,-2.4322,-2.4287,-2.4304,-2.4281,-2.432,-2.4307,-2.4309,-2.431,0,-2.3084,-2.3175,-2.3293,-2.3418,-2.3455,-2.3516,-2.3624,-2.3699,-2.3805,-2.3852,-2.3929,-2.399,-2.4081,-2.409,-2.4216,-2.4188,-2.4242,-2.4291,-2.4295,-2.4309,-2.4316,-2.4319,-2.4335,-2.4341,-2.4322,-2.4321,-2.432,0,-2.3049,-2.3202,-2.3293,-2.3343,-2.3491,-2.3532,-2.3596,-2.3701,-2.3762,-2.3858,-2.3899,-2.4004,-2.4062,-2.4144,-2.4233,-2.4231,-2.4351,-2.4367,-2.4395,-2.4393,-2.4417,-2.4414,-2.4442,-2.445,-2.445,-2.445,-2.445,0,-2.3079,-2.3148,-2.3279,-2.3335,-2.3416,-2.3509,-2.3588,-2.3659,-2.3752,-2.3824,-2.3898,-2.3966,-2.4079,-2.4161,-2.4232,-2.4327,-2.4353,-2.4395,-2.4413,-2.4389,-2.4383,-2.4425,-2.4425,-2.4452,-2.4451,-2.4451,-2.4451,0,-2.3054,-2.3144,-2.3248,-2.3379,-2.3414,-2.3468,-2.3582,-2.364,-2.3713,-2.3805,-2.3832,-2.3948,-2.4048,-2.4145,-2.4281,-2.4328,-2.4423,-2.4447,-2.4386,-2.4396,-2.4418,-2.4415,-2.4474,-2.4487,-2.4485,-2.4485,-2.4485,0,-2.3066,-2.3122,-2.3258,-2.331,-2.3372,-2.3457,-2.3519,-2.3614,-2.3676,-2.3801,-2.3845,-2.395,-2.4039,-2.4197,-2.4295,-2.44,-2.4427,-2.444,-2.4443,-2.4417,-2.4428,-2.4423,-2.443,-2.4438,-2.4437,-2.4437,-2.4437,0,-2.308,-2.3121,-2.3207,-2.3308,-2.338,-2.3465,-2.3553,-2.3593,-2.3705,-2.3772,-2.3874,-2.3943,-2.408,-2.4185,-2.43,-2.437,-2.4423,-2.4435,-2.4447,-2.4423,-2.4385,-2.4406,-2.438,-2.4433,-2.4434,-2.4434,-2.4434,-2.4434,-2.3075,-2.3127,-2.3231,-2.3324,-2.34,-2.348,-2.3541,-2.3621,-2.3707,-2.3825,-2.3876,-2.398,-2.4087,-2.4247,-2.4315,-2.4399,-2.4412,-2.4429,-2.4434,-2.4437,-2.4432,-2.4371,-2.4421,-2.4421,-2.4421,-2.4422,-2.4422,0,-2.3092,-2.3162,-2.3247,-2.3366,-2.344,-2.348,-2.358,-2.364,-2.3729,-2.3822,-2.3908,-2.4027,-2.4128,-2.4234,-2.4342,-2.439,-2.4417,-2.4415,-2.4413,-2.4428,-2.4414,-2.4393,-2.4391,-2.4391,-2.4391,-2.4391,-2.4391,-2.4391,-2.311,-2.3201,-2.3255,-2.3385,-2.3456,-2.3556,-2.3609,-2.3685,-2.376,-2.3887,-2.3971,-2.4038,-2.4138,-2.4254,-2.435,-2.4379,-2.4416,-2.4407,-2.4442,-2.4427,-2.4429,-2.4431,-2.4411,-2.4414,-2.4414,-2.445,-2.445,-2.4451]},{"header":{"parameterUnit":"m.s-1","parameterCategory":1,"la1":30.2991,"la2":30.254,"lo1":-89.0895,"lo2":-89.0444,"dx":0.0017,"dy":0.0017,"nx":28,"ny":28,"refTime":"2022-12-14T15:00:00:Z","depth":0,"parameterNumber":3,"parameterNumberName":"V-component_of_WINDS"},"data":[0,0,0,0,0,0,0,0,0,0,0,0,0,0,0,0,0,0,0,0,0,0,0,0,0,0,0,0,0,0,0,0,0,0,0,0,0,0,0,0,0,0,0,0,0,0,0,0,0,0,0,0,0,0,0,0,0,0,6.2006,6.2008,0,6.2166,6.2168,6.2169,6.2214,6.2214,6.2213,6.2212,6.2372,6.2376,6.2381,0,0,0,0,0,0,0,0,0,0,0,0,0,6.1737,6.1742,6.2006,6.2008,6.201,6.2166,6.2168,6.217,6.2215,6.2214,6.2212,6.2211,6.237,6.2376,6.2382,0,0,0,0,0,0,0,0,0,0,0,0,0,6.1871,6.1743,6.2005,6.2051,6.2057,6.2165,6.2168,6.217,6.2215,6.2214,6.2212,6.2211,6.2368,6.2375,6.2383,6.2456,0,0,6.2406,6.2409,0,0,0,0,0,0,0,0,6.1863,6.1881,6.2042,6.2048,6.2055,6.2169,6.2132,6.2266,6.2215,6.2155,6.2212,6.221,6.2305,6.2318,6.235,6.2464,6.247,6.2407,6.2411,6.2415,6.2417,0,0,0,0,0,0,0,6.1854,6.1874,6.2069,6.2044,6.2052,6.2063,6.208,6.2157,6.2235,6.216,6.2163,6.2182,6.2308,6.2343,6.2354,6.2473,6.2406,6.2413,6.2418,6.2421,6.2657,6.2659,0,0,0,0,0,0,6.1837,6.1866,6.2064,6.2074,6.1954,6.2069,6.2088,6.2133,6.2234,6.2249,6.2183,6.2184,6.2331,6.2346,6.236,6.2455,6.2414,6.2422,6.2426,6.2655,6.2658,6.2659,0,0,0,0,0,0,6.1831,6.1854,6.2057,6.1971,6.1998,6.2075,6.2125,6.2137,6.2172,6.2252,6.2266,6.2205,6.233,6.235,6.2433,6.2461,6.2425,6.2432,6.2653,6.2656,6.2658,6.2644,0,0,0,0,0,0,6.1823,6.1852,6.1881,6.1971,6.2002,6.2128,6.2127,6.2141,6.2186,6.2188,6.2276,6.2289,6.2331,6.2421,6.244,6.2471,6.2438,6.2651,6.2655,6.2658,6.2642,6.2646,6.2649,0,0,0,0,0,6.1814,6.1869,6.1882,6.1906,6.204,6.213,6.2147,6.2195,6.2188,6.2218,6.2269,6.2286,6.2455,6.243,6.2451,6.2485,6.265,6.2654,6.2657,6.2641,6.2645,6.2649,0,0,0,0,0,0,6.1778,6.1881,6.1897,6.1984,6.2048,6.2137,6.2176,6.2197,6.2263,6.2263,6.2318,6.2337,6.2417,6.2459,6.2429,6.2562,6.2553,6.2561,6.2532,6.2537,6.254,6.2529,6.2444,0,0,0,0,0,6.178,6.1845,6.1932,6.1999,6.2031,6.2098,6.2138,6.217,6.2238,6.2265,6.2322,6.2387,6.2455,6.2498,6.2564,6.2648,6.2669,6.2682,6.2685,6.2687,6.2694,6.2744,6.2752,6.2672,6.2672,6.2672,0,0,6.1785,6.185,6.1887,6.1994,6.2047,6.2113,6.212,6.2189,6.2238,6.2275,6.2359,6.2403,6.2478,6.2563,6.2603,6.26,6.2721,6.2692,6.2693,6.2699,6.2749,6.2756,6.2763,6.2675,6.2674,6.2674,0,0,6.1829,6.1884,6.1948,6.2002,6.2083,6.2128,6.2143,6.223,6.2262,6.2347,6.2376,6.2435,6.255,6.2604,6.2646,6.2713,6.2731,6.2732,6.2749,6.2797,6.2804,6.281,6.2835,6.2844,6.2739,6.2739,6.2739,0,6.1825,6.1926,6.1977,6.2046,6.2093,6.2131,6.2197,6.2246,6.2344,6.2376,6.2371,6.2519,6.2572,6.2671,6.2688,6.2719,6.2739,6.2723,6.2799,6.2805,6.2811,6.2837,6.2846,6.2738,6.2738,6.2738,6.2739,0,6.1918,6.1988,6.203,6.2127,6.2178,6.2244,6.2306,6.2351,6.2379,6.2424,6.2511,6.2576,6.2658,6.2683,6.271,6.2787,6.2783,6.2788,6.278,6.2818,6.2843,6.2853,6.2738,6.2738,6.2738,6.2738,0,0,6.1943,6.2069,6.2084,6.213,6.2223,6.2278,6.2346,6.2429,6.2468,6.2534,6.2594,6.2691,6.2698,6.2746,6.2778,6.282,6.2872,6.2821,6.2823,6.2829,6.2963,6.296,6.2971,6.2884,6.2886,6.2888,6.2958,0,6.2,6.2126,6.2175,6.2277,6.2344,6.2382,6.2442,6.2506,6.255,6.2612,6.266,6.273,6.2731,6.2761,6.2804,6.2856,6.29,6.2852,6.2941,6.2943,6.2923,6.2983,6.298,6.3043,6.2967,6.2969,6.297,0,6.2083,6.2154,6.2263,6.2352,6.2381,6.2434,6.2515,6.2574,6.2647,6.2676,6.2731,6.2762,6.2836,6.2822,6.2925,6.2891,6.2931,6.2962,6.2965,6.2977,6.296,6.2998,6.3063,6.3073,6.2986,6.2984,6.2983,0,6.2093,6.2215,6.2297,6.2334,6.2439,6.2476,6.2521,6.2593,6.264,6.271,6.2742,6.2818,6.286,6.2918,6.2969,6.2954,6.3068,6.3058,6.3095,6.3094,6.3118,6.3116,6.3193,6.314,6.314,6.314,6.314,0,6.2152,6.2218,6.2304,6.2354,6.243,6.2485,6.2558,6.2606,6.267,6.2731,6.2767,6.2823,6.2886,6.295,6.299,6.307,6.3088,6.3114,6.3124,6.3112,6.3109,6.314,6.3137,6.3142,6.3142,6.3141,6.3141,0,6.2176,6.2236,6.2329,6.2421,6.2446,6.2497,6.2576,6.2627,6.2673,6.275,6.2771,6.2843,6.2921,6.2977,6.3076,6.3103,6.319,6.3199,6.3166,6.3171,6.3206,6.3203,6.3306,6.3323,6.3257,6.3258,6.3258,0,6.2211,6.2264,6.2362,6.2407,6.2452,6.2522,6.2572,6.2628,6.2678,6.2767,6.2807,6.2888,6.2955,6.3077,6.3138,6.3215,6.3227,6.3258,6.3239,6.3226,6.323,6.3227,6.3234,6.3261,6.3262,6.3262,6.3262,0,6.2268,6.2295,6.2365,6.2447,6.2505,6.2571,6.2637,6.2671,6.274,6.2794,6.2875,6.2927,6.303,6.311,6.3193,6.3239,6.3263,6.3268,6.3281,6.327,6.325,6.3263,6.3175,6.3266,6.3265,6.3265,6.3265,6.3265,6.23,6.2349,6.2428,6.2505,6.2562,6.2624,6.2677,6.2731,6.28,6.289,6.2919,6.3003,6.3077,6.3192,6.3238,6.3305,6.3304,6.3322,6.3327,6.3331,6.3332,6.3238,6.332,6.332,6.332,6.332,6.332,0,6.236,6.2413,6.2484,6.2577,6.2639,6.2657,6.2732,6.2782,6.2857,6.2924,6.2991,6.3085,6.3163,6.3231,6.3312,6.3352,6.3366,6.3372,6.337,6.3381,6.3327,6.3309,6.336,6.336,6.336,6.336,6.336,6.336,6.2399,6.2484,6.2521,6.2636,6.2688,6.2772,6.2814,6.2872,6.2926,6.303,6.3097,6.3141,6.3209,6.3296,6.3369,6.3387,6.3416,6.342,6.3441,6.3389,6.3384,6.338,6.3363,6.3425,6.3425,6.349,6.349,6.3491]}]]